Simultaneous Nadir Overpasses (SNOs) Predictions

Prediction of SNOs between METOP-A and TERRA Satellite Orbit:

Table of predicted SNOs for the next 14.0 days since TLE Epoch: 7/9/2016
Index Date (METOP-A) Time (METOP-A) Lat,Lon (METOP-A) SZA (METOP-A ) Date (TERRA) Time (TERRA) Lat,Lon (TERRA) SZA (TERRA ) Distance(km) Time Diff (sec)
1 07/11/2016 16:33:56 81.32, -20.75 62.16 07/11/2016 16:35:00 81.33, -20.93 62.17 3.07 64
2 07/11/2016 17:24:37 -81.32, 146.59 117.84 07/11/2016 17:24:27 -81.33, 146.69 117.83 1.82 10
3 07/14/2016 12:08:18 81.32, 45.47 62.54 07/14/2016 12:09:15 81.32, 45.37 62.56 1.65 57
4 07/14/2016 12:58:59 -81.32,-147.15 117.45 07/14/2016 12:58:42 -81.32,-146.98 117.44 2.81 17
5 07/17/2016 07:42:38 81.32, 112.07 63.01 07/17/2016 07:43:28 81.33, 112.00 63.03 1.38 50
6 07/17/2016 08:33:19 -81.33, -80.50 116.97 07/17/2016 08:32:55 -81.33, -80.33 116.96 3.00 24
7 07/20/2016 03:17:00 81.32, 178.25 63.49 07/20/2016 03:17:43 81.32, 178.17 63.50 1.35 43
8 07/20/2016 04:07:41 -81.32, -14.28 116.49 07/20/2016 04:07:10 -81.32, -14.13 116.49 2.50 31
9 07/22/2016 22:51:21 81.32,-115.19 64.05 07/22/2016 22:51:57 81.32,-115.33 64.05 2.27 36




NCC Satellite Simultaneous Nadir Overpasses (SNOs) Prediction Service
